GW3962 Weather Reports


time (UTC)temp
C
wind
direction
speed
KPH
gust
KPH
rain 1hr
cm
rain 24hr
cm
rain mn
cm
humidity
%
barometer
mb
20260510061319 23 213 8.0 9.7 0.00 0.00 0.00 76 1011.8
20260510060815 23 201 6.4 8.0 0.00 0.00 0.00 76 1011.7
20260510060312 23 194 4.8 4.8 0.00 0.00 0.00 76 1011.8
20260510055809 23 204 6.4 8.0 0.00 0.03 0.03 76 1011.9
20260510055307 23 163 8.0 11.3 0.00 0.03 0.03 75 1011.6
20260510054807 23 196 12.9 16.1 0.00 0.03 0.03 75 1011.7
20260510054304 23 177 6.4 8.0 0.00 0.03 0.03 75 1011.7
20260510053804 24 222 4.8 4.8 0.00 0.03 0.03 75 1011.4
20260510053254 23 190 8.0 11.3 0.00 0.03 0.03 76 1011.8
20260510052750 24 196 6.4 9.7 0.00 0.03 0.03 77 1011.6
20260510052245 24 131 8.0 9.7 0.00 0.03 0.03 78 1011.6
20260510051742 24 197 4.8 8.0 0.00 0.03 0.03 78 1011.6
20260510051238 24 162 6.4 8.0 0.00 0.03 0.03 77 1011.8
20260510050735 25 192 4.8 8.0 0.00 0.03 0.03 76 1011.9
20260510050233 25 177 4.8 8.0 0.00 0.03 0.03 75 1011.7
20260510045729 25 143 9.7 11.3 0.00 0.03 0.03 76 1011.7
20260510045226 25 161 4.8 8.0 0.00 0.03 0.03 78 1011.6
20260510044722 25 160 6.4 8.0 0.00 0.03 0.03 78 1011.5
20260510044221 25 183 4.8 4.8 0.00 0.03 0.03 78 1011.6
20260510043715 25 129 6.4 8.0 0.00 0.03 0.03 78 1011.7
20260510043212 25 243 4.8 8.0 0.00 0.03 0.03 78 1011.8
20260510042710 25 217 6.4 8.0 0.00 0.03 0.03 78 1011.7
20260510042206 25 260 3.2 3.2 0.00 0.03 0.03 78 1011.6
20260510041703 25 212 4.8 4.8 0.00 0.03 0.03 77 1011.9
20260510041200 25 135 6.4 8.0 0.00 0.03 0.03 77 1011.8
20260510040657 25 197 4.8 8.0 0.00 0.03 0.03 77 1011.9
20260510040154 25 163 6.4 8.0 0.00 0.03 0.03 78 1011.7
20260510035649 25 171 6.4 9.7 0.00 0.03 0.03 78 1011.7
20260510035144 25 143 8.0 11.3 0.00 0.03 0.03 78 1011.6
20260510034641 25 203 6.4 8.0 0.00 0.03 0.03 79 1011.5
20260510034139 25 194 8.0 11.3 0.00 0.03 0.03 79 1011.4
20260510033635 25 138 6.4 9.7 0.00 0.03 0.03 79 1011.5
20260510033133 25 167 6.4 9.7 0.00 0.03 0.03 79 1011.5
20260510032629 25 186 4.8 4.8 0.00 0.03 0.03 79 1011.3
20260510032124 26 242 3.2 3.2 0.00 0.03 0.03 78 1011.2
20260510031619 26 189 4.8 8.0 0.00 0.03 0.03 78 1011.5
20260510031116 26 139 8.0 9.7 0.00 0.03 0.03 77 1011.1
20260510030611 26 193 6.4 9.7 0.00 0.03 0.03 77 1011.2
20260510030109 26 181 6.4 9.7 0.00 0.03 0.03 76 1011.1
20260510025606 26 172 8.0 11.3 0.00 0.03 0.03 76 1011.2
20260510025103 26 201 4.8 4.8 0.00 0.03 0.03 75 1011.1
20260510024600 26 179 8.0 9.7 0.00 0.03 0.03 73 1010.9
20260510024056 26 164 8.0 9.7 0.00 0.03 0.03 72 1010.8
20260510023552 26 212 4.8 4.8 0.00 0.03 0.03 71 1011.0
20260510023050 26 199 6.4 8.0 0.00 0.03 0.03 71 1010.7
20260510022549 27 223 1.6 3.2 0.00 0.03 0.03 69 1010.6
20260510022043 27 193 6.4 8.0 0.00 0.03 0.03 69 1010.5
20260510021535 26 221 3.2 4.8 0.00 0.03 0.03 69 1010.3
20260510021032 27 241 3.2 3.2 0.00 0.03 0.03 69 1010.4
20260510020526 27 232 3.2 4.8 0.00 0.03 0.03 69 1010.3
20260510020022 27 269 0.0 1.6 0.00 0.03 0.03 69 1010.2
20260510015518 27 260 3.2 3.2 0.00 0.03 0.03 68 1010.0
20260510015014 27 169 3.2 3.2 0.00 0.03 0.03 68 1009.9
20260510014511 27 177 4.8 4.8 0.00 0.03 0.03 67 1010.1
20260510014008 27 193 6.4 8.0 0.00 0.03 0.03 66 1009.9
20260510013502 27 185 4.8 8.0 0.00 0.03 0.03 66 1010.0
20260510012958 27 149 8.0 11.3 0.00 0.03 0.03 65 1009.9
20260510012453 28 116 8.0 9.7 0.00 0.03 0.03 64 1010.2
20260510011949 28 122 4.8 8.0 0.00 0.03 0.03 63 1009.9
20260510011444 28 164 3.2 4.8 0.00 0.03 0.03 62 1009.6
20260510010940 28 106 6.4 8.0 0.00 0.03 0.03 61 1009.9
20260510010437 28 132 11.3 12.9 0.00 0.03 0.03 60 1009.9
20260510005934 28 195 6.4 8.0 0.00 0.03 0.03 59 1009.6
20260510005430 28 178 4.8 8.0 0.00 0.03 0.03 58 1009.6
20260510004927 28 189 6.4 8.0 0.00 0.03 0.03 58 1009.8
20260510004425 29 181 8.0 11.3 0.00 0.03 0.03 57 1009.6
20260510003923 29 161 4.8 8.0 0.00 0.03 0.03 57 1009.8
20260510003419 29 200 4.8 4.8 0.00 0.03 0.03 57 1009.2
20260510002918 29 250 3.2 4.8 0.00 0.03 0.03 56 1009.3
20260510002416 30 176 6.4 8.0 0.00 0.03 0.03 55 1009.4
20260510001912 30 111 6.4 8.0 0.00 0.03 0.03 55 1009.4
20260510001410 30 134 8.0 9.7 0.00 0.03 0.03 55 1009.3
20260510000907 30 96 6.4 9.7 0.00 0.03 0.03 54 1009.3
20260510000404 30 134 9.7 12.9 0.00 0.03 0.03 53 1009.4
20260509235900 30 151 8.0 11.3 0.00 0.03 0.03 52 1009.3
20260509235357 30 154 4.8 4.8 0.00 0.03 0.03 52 1009.1
20260509234852 30 186 6.4 9.7 0.00 0.03 0.03 51 1009.2
20260509234350 30 190 4.8 9.7 0.00 0.03 0.03 51 1009.2
20260509233848 30 149 9.7 12.9 0.00 0.03 0.03 51 1009.0
20260509233345 30 136 8.0 9.7 0.00 0.03 0.03 50 1009.2
20260509232841 31 122 4.8 8.0 0.00 0.03 0.03 49 1009.3
20260509232339 30 236 3.2 4.8 0.00 0.03 0.03 50 1009.2
20260509231834 30 71 8.0 11.3 0.00 0.03 0.03 49 1009.0
20260509231332 31 156 4.8 4.8 0.00 0.03 0.03 48 1008.9
20260509230829 31 81 9.7 12.9 0.00 0.03 0.03 47 1008.9
20260509230326 31 104 6.4 9.7 0.00 0.03 0.03 47 1009.0
20260509225821 31 194 9.7 11.3 0.00 0.03 0.03 46 1008.9
20260509225319 31 306 3.2 4.8 0.00 0.03 0.03 47 1008.8
20260509224814 31 324 1.6 3.2 0.00 0.03 0.03 48 1009.1
20260509224311 31 194 8.0 8.0 0.00 0.03 0.03 47 1009.1
20260509223807 32 297 0.0 1.6 0.00 0.03 0.03 51 1009.2
20260509223305 33 312 3.2 4.8 0.00 0.03 0.03 47 1009.3
20260509222801 32 309 4.8 4.8 0.00 0.03 0.03 48 1008.9
20260509222257 31 311 1.6 1.6 0.00 0.03 0.03 51 1009.0
20260509221753 31 149 3.2 3.2 0.00 0.03 0.03 52 1009.0
20260509221250 32 113 4.8 4.8 0.00 0.03 0.03 50 1008.9
20260509220745 33 281 1.6 1.6 0.00 0.03 0.03 48 1009.1
20260509220242 32 329 0.0 1.6 0.00 0.03 0.03 49 1009.0
20260509215737 33 306 1.6 1.6 0.00 0.03 0.03 48 1009.0
20260509215234 33 6 4.8 4.8 0.00 0.03 0.03 49 1009.1
20260509214731 32 66 4.8 8.0 0.00 0.03 0.03 51 1009.0
20260509214228 32 267 3.2 3.2 0.00 0.03 0.03 51 1009.3
20260509213725 31 170 6.4 8.0 0.00 0.03 0.03 51 1009.3
20260509213221 31 252 6.4 8.0 0.00 0.03 0.03 52 1009.3
20260509212718 32 8 4.8 9.7 0.00 0.03 0.03 53 1009.3
20260509212215 32 292 1.6 1.6 0.00 0.03 0.03 52 1009.3
20260509211711 31 21 3.2 8.0 0.00 0.03 0.03 53 1009.4
20260509211207 31 120 4.8 8.0 0.00 0.03 0.03 53 1009.4
20260509210703 31 319 1.6 1.6 0.00 0.03 0.03 51 1009.6
20260509210156 31 55 8.0 11.3 0.00 0.03 0.03 51 1009.9
20260509205651 31 129 3.2 4.8 0.00 0.03 0.03 52 1009.8
20260509205150 31 103 8.0 11.3 0.00 0.03 0.03 52 1009.9
20260509204646 31 316 1.6 4.8 0.00 0.03 0.03 54 1010.1
20260509204143 31 107 1.6 3.2 0.00 0.03 0.03 56 1010.0
20260509203638 31 22 9.7 12.9 0.00 0.03 0.03 54 1010.0
20260509203132 30 288 8.0 12.9 0.00 0.03 0.03 54 1010.0
20260509202631 30 162 3.2 9.7 0.00 0.03 0.03 49 1010.3
20260509202127 30 334 6.4 11.3 0.00 0.03 0.03 51 1010.3
20260509201622 30 94 9.7 14.5 0.00 0.03 0.03 52 1010.8
20260509201120 31 114 16.1 22.5 0.00 0.03 0.03 55 1011.0
20260509200615 31 69 4.8 4.8 0.00 0.03 0.03 57 1010.7
20260509200111 30 315 3.2 4.8 0.00 0.03 0.03 62 1010.7
20260509195607 30 79 9.7 16.1 0.00 0.03 0.03 62 1010.6
20260509195102 30 7 6.4 9.7 0.00 0.03 0.03 61 1010.6
20260509194601 31 22 4.8 4.8 0.00 0.03 0.03 60 1010.4
20260509194059 31 301 1.6 1.6 0.00 0.03 0.03 55 1010.5
20260509193554 32 304 1.6 1.6 0.00 0.03 0.03 53 1010.4
20260509193051 31 299 1.6 1.6 0.00 0.03 0.03 55 1010.5
20260509192548 31 334 1.6 1.6 0.00 0.03 0.03 56 1010.6
20260509192042 31 314 1.6 1.6 0.00 0.03 0.03 58 1010.6
20260509191537 31 316 1.6 1.6 0.00 0.03 0.03 56 1010.8
20260509191033 31 27 6.4 9.7 0.00 0.03 0.03 58 1010.8
20260509190530 30 316 1.6 3.2 0.00 0.03 0.03 59 1010.8
20260509190029 31 309 0.0 1.6 0.00 0.03 0.03 56 1010.7
20260509185526 30 327 1.6 3.2 0.00 0.03 0.03 59 1011.1
20260509185021 29 302 8.0 11.3 0.00 0.03 0.03 62 1011.0
20260509184520 29 273 4.8 8.0 0.00 0.03 0.03 61 1011.2
20260509184016 30 297 1.6 1.6 0.00 0.03 0.03 61 1011.2
20260509183511 30 305 1.6 1.6 0.00 0.03 0.03 61 1011.2
20260509183007 30 312 3.2 3.2 0.00 0.03 0.03 62 1011.2
20260509182504 29 303 1.6 1.6 0.00 0.03 0.03 65 1011.6
20260509182001 28 309 4.8 8.0 0.00 0.03 0.03 63 1011.5
20260509181459 28 304 3.2 3.2 0.00 0.03 0.03 65 1011.5
20260509180956 28 297 1.6 1.6 0.00 0.03 0.03 65 1011.4
20260509180451 28 319 4.8 8.0 0.00 0.03 0.03 65 1011.8
20260509175949 28 299 4.8 4.8 0.00 0.03 0.03 66 1012.0
20260509175445 28 228 6.4 8.0 0.00 0.03 0.03 68 1011.7
20260509174942 28 279 3.2 3.2 0.00 0.03 0.03 70 1011.6
20260509174438 27 299 3.2 4.8 0.00 0.03 0.03 71 1011.6
20260509173933 27 305 3.2 4.8 0.00 0.03 0.03 71 1011.7
20260509173432 27 281 4.8 4.8 0.00 0.03 0.03 69 1012.0
20260509172929 27 279 3.2 4.8 0.00 0.03 0.03 70 1012.0
20260509172426 27 285 3.2 4.8 0.00 0.03 0.03 71 1012.2
20260509171922 28 248 4.8 4.8 0.00 0.03 0.03 69 1012.4
20260509171419 27 282 8.0 9.7 0.00 0.03 0.03 73 1012.2
20260509170915 27 244 3.2 4.8 0.00 0.03 0.03 73 1012.3
20260509170411 27 268 4.8 4.8 0.00 0.03 0.03 75 1012.3
20260509165907 27 213 11.3 12.9 0.00 0.03 0.03 76 1012.4
20260509165401 27 251 4.8 8.0 0.00 0.03 0.03 78 1012.0
20260509164857 26 232 4.8 8.0 0.00 0.03 0.03 80 1012.5
20260509164353 26 226 9.7 9.7 0.00 0.03 0.03 79 1012.5
20260509163849 26 302 8.0 11.3 0.00 0.03 0.03 82 1012.3
20260509163346 25 269 6.4 8.0 0.00 0.03 0.03 83 1012.5
20260509162845 25 240 16.1 20.9 0.00 0.03 0.03 84 1012.3
20260509162344 25 185 8.0 11.3 0.00 0.03 0.03 86 1012.4
20260509161840 25 249 6.4 8.0 0.00 0.03 0.03 86 1012.4
20260509161336 24 149 6.4 9.7 0.00 0.03 0.03 88 1012.2
20260509160832 24 227 17.7 20.9 0.00 0.03 0.03 88 1012.1
20260509160328 23 214 14.5 16.1 0.00 0.03 0.03 89 1012.4
20260509155823 23 218 11.3 12.9 0.00 0.03 0.03 91 1012.2
20260509155320 23 205 9.7 11.3 0.00 0.03 0.03 90 1012.5
20260509154816 23 226 11.3 12.9 0.00 0.03 0.03 90 1012.2
20260509154313 23 241 11.3 16.1 0.00 0.03 0.03 90 1012.4
20260509153810 23 210 11.3 12.9 0.00 0.03 0.03 89 1012.3
20260509153306 24 212 19.3 22.5 0.00 0.03 0.03 88 1012.3
20260509152803 24 241 6.4 8.0 0.00 0.03 0.03 90 1012.0
20260509152259 24 205 6.4 9.7 0.00 0.03 0.03 89 1011.9
20260509151756 25 239 14.5 16.1 0.00 0.03 0.03 88 1012.1
20260509151253 25 232 6.4 9.7 0.00 0.03 0.03 87 1011.8
20260509150752 25 287 9.7 12.9 0.00 0.03 0.03 86 1011.6
20260509150249 25 278 9.7 12.9 0.00 0.03 0.03 85 1011.7
20260509145746 25 272 6.4 8.0 0.00 0.03 0.03 85 1011.5
20260509145245 25 281 4.8 8.0 0.00 0.03 0.03 86 1011.5
20260509144742 25 256 8.0 9.7 0.00 0.03 0.03 86 1011.7
20260509144239 25 215 6.4 9.7 0.00 0.03 0.03 87 1011.9
20260509143736 25 282 4.8 4.8 0.00 0.03 0.03 87 1011.7
20260509143234 25 271 4.8 4.8 0.00 0.03 0.03 88 1011.6
20260509142729 24 297 4.8 4.8 0.00 0.03 0.03 88 1011.4
20260509142226 24 205 6.4 8.0 0.00 0.03 0.03 88 1011.5
20260509141722 24 251 4.8 4.8 0.00 0.03 0.03 89 1011.5
20260509141219 23 268 1.6 3.2 0.00 0.03 0.03 91 1011.4
20260509140715 23 241 4.8 4.8 0.00 0.03 0.03 92 1011.3
20260509140213 23 249 8.0 11.3 0.00 0.03 0.03 92 1011.0
20260509135710 23 217 8.0 9.7 0.00 0.03 0.03 92 1010.8
20260509135208 23 241 6.4 8.0 0.00 0.03 0.03 93 1010.9
20260509134704 22 222 11.3 12.9 0.00 0.03 0.03 93 1011.1
20260509134202 22 210 14.5 16.1 0.00 0.03 0.03 94 1010.9
20260509133659 22 248 8.0 9.7 0.00 0.03 0.03 95 1010.9
20260509133156 22 229 4.8 4.8 0.00 0.03 0.03 96 1011.0
20260509132654 22 240 9.7 11.3 0.00 0.03 0.03 96 1011.2
20260509132153 21 241 6.4 9.7 0.00 0.03 0.03 97 1011.1
20260509131648 21 231 16.1 16.1 0.00 0.03 0.03 97 1011.1
20260509131145 21 231 8.0 9.7 0.00 0.03 0.03 97 1011.3
20260509130641 21 225 8.0 9.7 0.00 0.03 0.03 97 1010.8
20260509130138 21 199 12.9 14.5 0.00 0.03 0.03 97 1011.0
20260509125634 21 224 8.0 9.7 0.00 0.03 0.03 97 1011.3
20260509125131 21 281 3.2 3.2 0.00 0.03 0.03 97 1011.3
20260509124627 21 296 1.6 1.6 0.00 0.03 0.03 97 1011.6
20260509124125 21 280 1.6 3.2 0.00 0.03 0.03 97 1011.5
20260509123623 21 316 1.6 1.6 0.00 0.03 0.03 97 1011.5
20260509123119 21 303 0.0 1.6 0.00 0.03 0.03 97 1011.6
20260509122615 21 318 3.2 3.2 0.00 0.03 0.03 97 1011.5
20260509122113 21 326 4.8 4.8 0.00 0.03 0.03 97 1011.5
20260509121609 21 325 0.0 0.0 0.00 0.03 0.03 97 1011.3
20260509121107 21 324 0.0 0.0 0.00 0.03 0.03 97 1011.5
20260509120604 21 322 0.0 0.0 0.00 0.03 0.03 97 1011.5
20260509115559 21 36 1.6 3.2 0.00 0.03 0.03 97 1011.8
20260509115057 21 346 0.0 0.0 0.00 0.03 0.03 97 1011.7
20260509114555 21 36 4.8 4.8 0.00 0.03 0.03 97 1012.0
20260509114054 21 317 0.0 0.0 0.00 0.03 0.03 97 1011.9
20260509113551 21 27 3.2 3.2 0.00 0.03 0.03 97 1011.9
20260509113049 21 292 1.6 3.2 0.00 0.03 0.03 97 1012.1
20260509112545 21 286 1.6 3.2 0.00 0.03 0.03 97 1012.1
20260509112042 21 302 1.6 1.6 0.00 0.03 0.03 97 1012.1
20260509111539 21 324 0.0 0.0 0.00 0.03 0.03 97 1012.2
20260509111036 21 14 0.0 1.6 0.00 0.03 0.03 97 1012.5
20260509110533 21 325 0.0 0.0 0.00 0.03 0.03 97 1012.7
20260509110030 21 335 1.6 1.6 0.00 0.03 0.03 97 1013.0
20260509105529 21 30 3.2 8.0 0.00 0.03 0.03 97 1012.6
20260509105026 21 30 1.6 1.6 0.00 0.03 0.03 96 1012.4
20260509104523 21 38 3.2 8.0 0.00 0.03 0.03 96 1012.4
20260509104020 21 14 4.8 4.8 0.00 0.03 0.03 96 1012.9
20260509103517 21 337 1.6 1.6 0.18 0.03 0.03 96 1012.7
20260509103015 21 332 4.8 4.8 0.18 0.03 0.03 96 1012.9
20260509102512 21 34 1.6 4.8 0.00 0.00 0.00 96 1012.9
20260509102009 21 323 1.6 1.6 0.00 0.00 0.00 96 1012.9
20260509101505 21 9 3.2 4.8 0.00 0.00 0.00 96 1012.5
20260509101002 21 332 0.0 0.0 0.00 0.00 0.00 96 1012.4
20260509100459 21 342 1.6 1.6 0.00 0.00 0.00 96 1012.2
20260509095956 21 339 1.6 1.6 0.00 0.00 0.00 96 1012.0
20260509095453 21 46 3.2 4.8 0.00 0.00 0.00 96 1011.9
20260509094950 21 22 3.2 3.2 0.00 0.00 0.00 96 1011.9
20260509094447 21 16 1.6 1.6 0.00 0.00 0.00 96 1011.5
20260509093944 21 0 1.6 1.6 0.00 0.00 0.00 96 1011.3
20260509093442 21 356 1.6 3.2 0.00 0.00 0.00 96 1011.2
20260509092939 21 28 3.2 3.2 0.00 0.00 0.00 96 1011.0
20260509092437 21 343 0.0 1.6 0.00 0.00 0.00 96 1011.3
20260509091936 21 346 1.6 1.6 0.00 0.00 0.00 96 1011.1
20260509091432 21 16 3.2 3.2 0.00 0.00 0.00 96 1010.9
20260509090929 21 19 3.2 3.2 0.00 0.00 0.00 96 1010.9
20260509090426 21 346 1.6 1.6 0.00 0.00 0.00 96 1011.1
20260509085924 21 25 3.2 4.8 0.00 0.00 0.00 96 1011.0
20260509085421 21 58 6.4 9.7 0.00 0.00 0.00 96 1011.1
20260509084917 21 68 4.8 4.8 0.00 0.00 0.00 95 1011.3
20260509084414 21 7 1.6 3.2 0.00 0.00 0.00 95 1011.3
20260509083912 21 11 1.6 3.2 0.00 0.00 0.00 95 1011.2
20260509083409 21 353 0.0 0.0 0.00 0.00 0.00 95 1011.2
20260509082905 21 330 0.0 0.0 0.00 0.00 0.00 95 1011.6
20260509082402 21 325 0.0 0.0 0.00 0.00 0.00 95 1011.6
20260509081859 21 0 3.2 3.2 0.00 0.00 0.00 95 1011.7
20260509081356 21 358 1.6 1.6 0.00 0.00 0.00 95 1011.6
20260509080854 21 11 1.6 3.2 0.00 0.00 0.00 95 1011.6
20260509080352 21 327 0.0 0.0 0.00 0.00 0.00 95 1011.8
20260509075850 21 331 0.0 0.0 0.00 0.00 0.00 95 1011.6
20260509075346 21 73 4.8 4.8 0.00 0.00 0.00 95 1011.7
20260509074844 21 9 1.6 1.6 0.00 0.00 0.00 95 1011.7
20260509074342 21 328 0.0 0.0 0.00 0.00 0.00 95 1011.6
20260509073837 21 7 1.6 1.6 0.00 0.00 0.00 95 1011.4
20260509073334 21 343 0.0 0.0 0.00 0.00 0.00 95 1011.6
20260509072831 21 325 0.0 0.0 0.00 0.00 0.00 95 1011.7
20260509072327 21 325 0.0 0.0 0.00 0.00 0.00 95 1011.7
20260509071824 21 325 0.0 0.0 0.00 0.00 0.00 95 1011.8
20260509071321 21 352 0.0 0.0 0.00 0.00 0.00 95 1011.8
20260509070818 22 311 0.0 0.0 0.00 0.00 0.00 95 1012.3
20260509070315 22 311 0.0 0.0 0.00 0.00 0.00 95 1012.1
20260509065811 21 312 0.0 0.0 0.00 0.00 0.00 95 1012.2
20260509065307 22 312 0.0 0.0 0.00 0.00 0.00 95 1011.9
20260509064803 22 312 0.0 0.0 0.00 0.00 0.00 95 1011.9
20260509064301 21 317 0.0 0.0 0.00 0.00 0.00 95 1012.0
20260509063759 21 315 0.0 0.0 0.00 0.00 0.00 95 1011.8
20260509063254 21 306 0.0 0.0 0.00 0.00 0.00 95 1011.9
20260509062752 21 258 1.6 3.2 0.00 0.00 0.00 95 1011.9
20260509062249 21 302 0.0 0.0 0.00 0.00 0.00 95 1012.0
20260509061746 21 308 1.6 1.6 0.00 0.00 0.00 95 1011.8